• In Deutschland
  • Länderverzeichnis
  • Für 7 Tage
  • Wassertemperatur
  • Satellitenkarten
  • Wetterkarte
  • Widgets
  • user-avatar
    Anmelden

    Stündliche Wetter Nauchnyi

    Heute, 22 Juli, Sonntag

    Zeit Temperatur Niederschläge Wind Luftdruck Luftfeuchtigkeit
    00:00 +20°C° 0 mm 3 m/S 713 mmHg 86%
    01:00 +20°C° 0 mm 3 m/S 713 mmHg 86%
    02:00 +20°C° 0 mm 3 m/S 713 mmHg 86%
    03:00 +20°C° 0,1 mm 3 m/S 713 mmHg 86%
    04:00 +20°C° 0,1 mm 2 m/S 713 mmHg 86%
    05:00 +20°C° 0,1 mm 2 m/S 713 mmHg 85%
    06:00 +21°C° 0,2 mm 2 m/S 713 mmHg 79%
    07:00 +24°C° 0,2 mm 2 m/S 713 mmHg 72%
    08:00 +25°C° 0,2 mm 3 m/S 713 mmHg 66%
    09:00 +26°C° 0,5 mm 3 m/S 713 mmHg 62%
    10:00 +27°C° 0,5 mm 3 m/S 713 mmHg 59%
    11:00 +28°C° 0,5 mm 3 m/S 713 mmHg 55%
    12:00 +28°C° 0,5 mm 4 m/S 713 mmHg 54%
    13:00 +28°C° 0,5 mm 4 m/S 713 mmHg 53%
    14:00 +29°C° 0,5 mm 4 m/S 713 mmHg 51%
    15:00 +28°C° 0,2 mm 4 m/S 713 mmHg 54%
    16:00 +27°C° 0,2 mm 4 m/S 713 mmHg 57%
    17:00 +27°C° 0,2 mm 4 m/S 713 mmHg 59%
    18:00 +25°C° 0,2 mm 4 m/S 712 mmHg 65%
    19:00 +24°C° 0,2 mm 3 m/S 712 mmHg 71%
    20:00 +21°C° 0,2 mm 3 m/S 712 mmHg 77%
    21:00 +21°C° 0,1 mm 3 m/S 712 mmHg 79%
    22:00 +20°C° 0,1 mm 2 m/S 712 mmHg 81%
    23:00 +20°C° 0,1 mm 2 m/S 712 mmHg 84%

    Morgen, 23 Juli, Montag

    Zeit Temperatur Niederschläge Wind Luftdruck Luftfeuchtigkeit
    00:00 +20°C° 0 mm 2 m/S 712 mmHg 84%
    01:00 +19°C° 0 mm 2 m/S 712 mmHg 84%
    02:00 +19°C° 0 mm 2 m/S 712 mmHg 84%
    03:00 +19°C° 0 mm 2 m/S 711 mmHg 83%
    04:00 +19°C° 0 mm 2 m/S 711 mmHg 83%
    05:00 +19°C° 0 mm 2 m/S 711 mmHg 82%
    06:00 +22°C° 0 mm 1 m/S 711 mmHg 75%
    07:00 +24°C° 0 mm 1 m/S 712 mmHg 67%
    08:00 +26°C° 0 mm 1 m/S 712 mmHg 60%
    09:00 +27°C° 0 mm 1 m/S 712 mmHg 55%
    10:00 +28°C° 0 mm 1 m/S 712 mmHg 50%
    11:00 +29°C° 0 mm 1 m/S 712 mmHg 45%
    12:00 +29°C° 0,4 mm 2 m/S 712 mmHg 47%
    13:00 +29°C° 0,4 mm 2 m/S 712 mmHg 49%
    14:00 +28°C° 0,4 mm 3 m/S 711 mmHg 52%
    15:00 +28°C° 0,4 mm 3 m/S 711 mmHg 54%
    16:00 +27°C° 0,4 mm 2 m/S 711 mmHg 56%
    17:00 +27°C° 0,4 mm 2 m/S 711 mmHg 59%
    18:00 +25°C° 0,1 mm 2 m/S 711 mmHg 63%
    19:00 +24°C° 0,1 mm 1 m/S 711 mmHg 68%
    20:00 +23°C° 0,1 mm 1 m/S 711 mmHg 72%
    21:00 +22°C° 0 mm 1 m/S 711 mmHg 74%
    22:00 +22°C° 0 mm 1 m/S 710 mmHg 75%
    23:00 +21°C° 0 mm 1 m/S 710 mmHg 77%

    übermorgen, 24 Juli, Dienstag

    Zeit Temperatur Niederschläge Wind Luftdruck Luftfeuchtigkeit
    00:00 +20°C° 0 mm 2 m/S 710 mmHg 77%
    01:00 +20°C° 0 mm 2 m/S 710 mmHg 77%
    02:00 +20°C° 0 mm 2 m/S 710 mmHg 77%
    03:00 +20°C° 0 mm 2 m/S 709 mmHg 78%
    04:00 +20°C° 0 mm 3 m/S 709 mmHg 78%
    05:00 +20°C° 0 mm 3 m/S 709 mmHg 78%
    06:00 +21°C° 0 mm 3 m/S 709 mmHg 74%
    07:00 +24°C° 0 mm 3 m/S 710 mmHg 69%
    08:00 +26°C° 0 mm 4 m/S 710 mmHg 64%
    09:00 +27°C° 0 mm 4 m/S 710 mmHg 60%
    10:00 +28°C° 0 mm 4 m/S 710 mmHg 56%
    11:00 +29°C° 0 mm 4 m/S 710 mmHg 52%
    12:00 +29°C° 0 mm 4 m/S 710 mmHg 51%
    13:00 +29°C° 0 mm 4 m/S 710 mmHg 49%
    14:00 +30°C° 0 mm 4 m/S 710 mmHg 48%
    15:00 +29°C° 0 mm 4 m/S 710 mmHg 51%
    16:00 +28°C° 0 mm 4 m/S 710 mmHg 54%
    17:00 +28°C° 0 mm 3 m/S 710 mmHg 57%
    18:00 +26°C° 0,5 mm 3 m/S 710 mmHg 64%
    19:00 +25°C° 0,5 mm 3 m/S 710 mmHg 71%
    20:00 +22°C° 0,5 mm 3 m/S 710 mmHg 79%
    21:00 +21°C° 0 mm 3 m/S 710 mmHg 80%
    22:00 +21°C° 0 mm 3 m/S 710 mmHg 80%
    23:00 +21°C° 0 mm 3 m/S 710 mmHg 81%

    25 Juli, Mittwoch

    Zeit Temperatur Niederschläge Wind Luftdruck Luftfeuchtigkeit
    00:00 +20°C° 0 mm 3 m/S 709 mmHg 81%
    01:00 +20°C° 0 mm 2 m/S 709 mmHg 80%
    02:00 +20°C° 0 mm 2 m/S 709 mmHg 79%
    03:00 +20°C° 0,1 mm 2 m/S 709 mmHg 80%
    04:00 +19°C° 0,1 mm 2 m/S 709 mmHg 80%
    05:00 +19°C° 0,1 mm 2 m/S 709 mmHg 80%
    06:00 +21°C° 0,1 mm 2 m/S 710 mmHg 74%
    07:00 +24°C° 0,1 mm 2 m/S 710 mmHg 68%
    08:00 +26°C° 0,1 mm 2 m/S 710 mmHg 63%
    09:00 +26°C° 0,3 mm 2 m/S 711 mmHg 61%
    10:00 +27°C° 0,3 mm 2 m/S 711 mmHg 60%
    11:00 +27°C° 0,3 mm 3 m/S 711 mmHg 58%
    12:00 +27°C° 0,3 mm 3 m/S 711 mmHg 58%
    13:00 +27°C° 0,3 mm 3 m/S 711 mmHg 57%
    14:00 +27°C° 0,3 mm 3 m/S 711 mmHg 57%
    15:00 +27°C° 0,2 mm 3 m/S 711 mmHg 56%
    16:00 +28°C° 0,2 mm 2 m/S 711 mmHg 55%
    17:00 +28°C° 0,2 mm 2 m/S 711 mmHg 53%
    18:00 +26°C° 0,1 mm 2 m/S 711 mmHg 60%
    19:00 +25°C° 0,1 mm 2 m/S 711 mmHg 66%
    20:00 +23°C° 0,1 mm 2 m/S 711 mmHg 73%
    21:00 +23°C° 0 mm 2 m/S 711 mmHg 73%
    22:00 +21°C° 0 mm 2 m/S 711 mmHg 74%
    23:00 +21°C° 0 mm 2 m/S 711 mmHg 75%

    26 Juli, Donnerstag

    Zeit Temperatur Niederschläge Wind Luftdruck Luftfeuchtigkeit
    00:00 +20°C° 0 mm 2 m/S 711 mmHg 75%
    01:00 +20°C° 0 mm 2 m/S 711 mmHg 75%
    02:00 +20°C° 0 mm 2 m/S 711 mmHg 76%
    03:00 +20°C° 0 mm 2 m/S 711 mmHg 77%
    04:00 +20°C° 0 mm 3 m/S 711 mmHg 78%
    05:00 +20°C° 0 mm 3 m/S 711 mmHg 80%
    06:00 +23°C° 0 mm 2 m/S 711 mmHg 72%
    07:00 +26°C° 0 mm 2 m/S 712 mmHg 64%
    08:00 +28°C° 0 mm 1 m/S 712 mmHg 56%
    09:00 +29°C° 0 mm 2 m/S 712 mmHg 52%
    10:00 +30°C° 0 mm 2 m/S 712 mmHg 48%
    11:00 +31°C° 0 mm 3 m/S 712 mmHg 45%
    12:00 +33°C° 0 mm 3 m/S 712 mmHg 44%
    13:00 +33°C° 0 mm 3 m/S 712 mmHg 43%
    14:00 +34°C° 0 mm 4 m/S 712 mmHg 42%
    15:00 +33°C° 0,2 mm 4 m/S 712 mmHg 45%
    16:00 +32°C° 0,2 mm 4 m/S 712 mmHg 48%
    17:00 +32°C° 0,2 mm 4 m/S 712 mmHg 51%
    18:00 +29°C° 0 mm 3 m/S 712 mmHg 57%
    19:00 +27°C° 0 mm 3 m/S 712 mmHg 62%
    20:00 +26°C° 0 mm 3 m/S 712 mmHg 68%
    21:00 +25°C° 0 mm 3 m/S 712 mmHg 68%
    22:00 +25°C° 0 mm 2 m/S 712 mmHg 68%
    23:00 +25°C° 0 mm 2 m/S 712 mmHg 69%

    27 Juli, Freitag

    Zeit Temperatur Niederschläge Wind Luftdruck Luftfeuchtigkeit
    00:00 +24°C° 0,2 mm 2 m/S 712 mmHg 70%
    01:00 +24°C° 0,2 mm 2 m/S 712 mmHg 71%
    02:00 +23°C° 0,2 mm 2 m/S 712 mmHg 72%
    03:00 +23°C° 0,2 mm 2 m/S 712 mmHg 72%
    04:00 +23°C° 0,2 mm 2 m/S 712 mmHg 73%
    05:00 +23°C° 0,2 mm 2 m/S 712 mmHg 73%
    06:00 +25°C° 0,1 mm 2 m/S 712 mmHg 67%
    07:00 +27°C° 0,1 mm 2 m/S 712 mmHg 61%
    08:00 +29°C° 0,1 mm 2 m/S 712 mmHg 56%
    09:00 +30°C° 0,3 mm 2 m/S 713 mmHg 53%
    10:00 +31°C° 0,3 mm 2 m/S 713 mmHg 50%
    11:00 +32°C° 0,3 mm 2 m/S 713 mmHg 47%
    12:00 +33°C° 0,4 mm 3 m/S 713 mmHg 48%
    13:00 +33°C° 0,4 mm 3 m/S 713 mmHg 48%
    14:00 +33°C° 0,4 mm 3 m/S 713 mmHg 48%
    15:00 +31°C° 0,5 mm 3 m/S 713 mmHg 52%
    16:00 +30°C° 0,5 mm 3 m/S 713 mmHg 55%
    17:00 +29°C° 0,5 mm 3 m/S 713 mmHg 59%
    18:00 +27°C° 0,2 mm 3 m/S 712 mmHg 64%
    19:00 +26°C° 0,2 mm 2 m/S 712 mmHg 68%
    20:00 +24°C° 0,2 mm 2 m/S 712 mmHg 73%
    21:00 +24°C° 0,1 mm 2 m/S 712 mmHg 74%
    22:00 +24°C° 0,1 mm 2 m/S 712 mmHg 75%
    23:00 +23°C° 0,1 mm 2 m/S 712 mmHg 76%
    Mehr zeigen